Location: Lane
(33.5226°N, 79.8788°W)
Time: 09:38:13
(UTC+00:00)

Vanguard 2 - Pass Details

Date: 09 October 2022
Orbit: 553 x 2932 km, 32.9° (Epoch: 08 December)

Event Time Altitude Azimuth Distance (km) Brightness Sun altitude
Rises 16:22:45 0° 247° (WSW) 3,650 11.1 48.7°
Reaches altitude 10° 16:24:54 10° 245° (WSW) 2,923 10.7 48.8°
Maximum altitude 16:32:14 72° 162° (SSE) 1,593 10.7 49.2°
Drops below altitude 10° 16:44:51 10° 81° (E) 4,836 11.7 49.7°
Sets 16:49:27 0° 80° (E) 6,167 12.1 49.8°
